Regional Weather Roundup
Issued by NWS

Home | Current Version | Previous Version | Graphics & Text | Print | Product List | Glossary On
Versions: 1 2 3 4 5 6 7 8 9 10 11 12 13 14 15 16 17 18 19 20 21 22 23 24 25 26 27 28 29 30 31 32 33 34 35 36 37 38 39 40 41 42 43 44 45 46 47 48 49 50
000
ASUS43 KIND 310609
RWRIN

WEATHER ROUNDUP FOR INDIANA
NATIONAL WEATHER SERVICE INDIANAPOLIS IN
100 AM EST SAT JAN 31 2015

NOTE: "FAIR" INDICATES FEW OR NO CLOUDS BELOW 12,000 FEET WITH NO
SIGNIFICANT WEATHER AND/OR OBSTRUCTIONS TO VISIBILITY.

* - STATION DOES NOT REPORT WEATHER SUCH AS PRECIPITATION OR FOG.

+ - STATION NOT QUALITY CONTROLLED BY THE NATIONAL WEATHER SERVICE.
    USE DATA WITH CAUTION...ESPECIALLY DEWPOINT AND RELATIVE
    HUMIDITY OBSERVATIONS.

INZ001>003-010>013-019-020-310700-
NORTHWEST INDIANA

CITY           SKY/WX    TMP DP  RH WIND       PRES   REMARKS
GARY /AIRPORT/ CLEAR     20  13  75 CALM      30.37F
KNOX *+        CLEAR     18   7  62 S6        30.37F WCI   9
LA PORTE +     CLOUDY    20  15  81 SW3       30.37S
6HR MIN TEMP:  17; 6HR MAX TEMP:  23;

MICHIGAN CITY+ CLEAR     19  12  73 S3        30.36F
MONTICELLO +   CLEAR     22  17  83 S3        30.39S
6HR MIN TEMP:  20; 6HR MAX TEMP:  26;

RENSSELAER +   CLEAR     23  21  93 CALM      30.39S
VALPARAISO     CLEAR     18  14  84 S3        30.36F
6HR MIN TEMP:  17; 6HR MAX TEMP:  23;


$$

LMZ046-743>745-310700-
SOUTHERN LAKE MICHIGAN

STATION/POSITION TIME  TEMP WIND        PRES
                       AIR  DIR/SP/G
                 (UTC) (F)  (DEG/KT/KT) (MB)
MICHIGAN CITY    0600   23  170/  9/ 11   N/A

$$

INZ004-005-014>016-021>024-310700-
NORTH CENTRAL INDIANA

CITY           SKY/WX    TMP DP  RH WIND       PRES   REMARKS
GOSHEN         CLEAR     18  13  80 S5        30.36F WCI  11
6HR MIN TEMP:  17; 6HR MAX TEMP:  24;

LOGANSPORT +   CLEAR     19  18  93 S5        30.40S WCI  13
PERU/GRISSOM   CLEAR     17  13  85 S5        30.38F WCI  10
6HR MIN TEMP:  17; 6HR MAX TEMP:  24;

ROCHESTER +    CLEAR     21  19  93 S3        30.39S
SOUTH BEND     CLEAR     16  10  77 CALM      30.37F
6HR MIN TEMP:  16; 6HR MAX TEMP:  22;

WARSAW +       CLEAR     18  14  86 CALM      30.37F

$$

INZ006>009-017-018-025>027-310700-
NORTHEAST INDIANA

CITY           SKY/WX    TMP DP  RH WIND       PRES   REMARKS
ANGOLA *+      CLEAR     10   9  92 CALM      30.35F
AUBURN +       MOCLDY    18  14  86 CALM      30.37F
FORT WAYNE     PTCLDY    18  14  84 S8        30.38F WCI   8
6HR MIN TEMP:  17; 6HR MAX TEMP:  24;

HUNTINGTON +   CLEAR     18  11  76 CALM      30.37F
6HR MIN TEMP:  15; 6HR MAX TEMP:  24;


$$

INZ028-029-035-036-043>045-051>053-310700-
WEST CENTRAL INDIANA

CITY           SKY/WX    TMP DP  RH WIND       PRES   REMARKS
GREENCASTLE +  CLEAR     19  14  79 CALM      30.41S
LAFAYETTE      CLEAR     19  16  88 CALM      30.40F
6HR MIN TEMP:  18; 6HR MAX TEMP:  26;

TERRE HAUTE    CLEAR     21  16  81 CALM      30.42F
6HR MIN TEMP:  21; 6HR MAX TEMP:  30;


$$

INZ030>032-037>040-046>048-054>057-064-065-310700-
CENTRAL INDIANA

CITY           SKY/WX    TMP DP  RH WIND       PRES   REMARKS
CP ATTERBURY + CLEAR     19  18  93 CALM      30.42F
FRANKFORT +    CLEAR     18  16  92 SE5       30.40F WCI  11
6HR MIN TEMP:  16; 6HR MAX TEMP:  26;

GREENWOOD *+   CLEAR     21  14  73 CALM      30.41F
INDIANAPOLIS   CLEAR     20  15  81 SE5       30.40F WCI  13
6HR MIN TEMP:  20; 6HR MAX TEMP:  25;

-EAGLE CREEK   CLEAR     19  14  81 CALM      30.40S
6HR MIN TEMP:  18; 6HR MAX TEMP:  27;

KOKOMO *+      CLEAR     19  14  79 S3        30.39F
6HR MIN TEMP:  19; 6HR MAX TEMP:  27;

MARION +       CLEAR     19  16  87 S5        30.39F WCI  12
MT COMFORT *+  CLEAR     19  16  86 S3        30.41S
SHELBYVILLE    CLEAR     21  17  84 CALM      30.41S
6HR MIN TEMP:  21; 6HR MAX TEMP:  28;

ZIONSVILLE +   CLEAR     18  15  87 CALM      30.41S
6HR MIN TEMP:  18; 6HR MAX TEMP:  25;


$$

INZ033-034-041-042-049-050-058-059-310700-
EAST CENTRAL INDIANA

CITY           SKY/WX    TMP DP  RH WIND       PRES   REMARKS
MUNCIE         CLEAR     19  14  81 S5        30.39F WCI  12
6HR MIN TEMP:  19; 6HR MAX TEMP:  24;


$$

INZ060-061-067>069-081>083-085>088-310700-
SOUTHWEST INDIANA

CITY           SKY/WX    TMP DP  RH WIND       PRES   REMARKS
EVANSVILLE     CLEAR     25  20  81 CALM      30.44F
6HR MIN TEMP:  25; 6HR MAX TEMP:  35;

HUNTINGBURG *+ CLEAR     23  18  80 CALM      30.43F
6HR MIN TEMP:  23; 6HR MAX TEMP:  32;

WASHINGTON +   CLEAR     23  19  83 CALM      30.42F
6HR MIN TEMP:  23; 6HR MAX TEMP:  31;


$$

INZ062-063-066-070>080-084-089>092-310700-
SOUTH CENTRAL AND SOUTHEAST INDIANA

CITY           SKY/WX    TMP DP  RH WIND       PRES   REMARKS
BLOOMINGTON    CLEAR     20  15  81 CALM      30.40F
6HR MIN TEMP:  20; 6HR MAX TEMP:  26;

NORTH VERNON + CLEAR     21  21 100 CALM      30.42S
SEYMOUR +      CLEAR     21  18  86 S3        30.43F

$$



USA.gov is the U.S. government's official web portal to all federal, state and local government web resources and services.